Regional Weather Roundup
Issued by NWS

Home | Current Version | Previous Version | Text Only | Print | Product List | Glossary On
Versions: 1 2 3 4 5 6 7 8 9 10 11 12 13 14 15 16 17 18 19 20 21 22 23 24 25 26 27 28 29 30 31 32 33 34 35 36 37 38 39 40 41 42 43 44 45 46 47 48 49 50
000
ASUS44 KMEG 121310
RWRTN
TENNESSEE HOURLY STATE WEATHER ROUNDUP
NATIONAL WEATHER SERVICE MEMPHIS TN
700 AM CST TUE DEC 12 2017

TNZ002-004-019-021-049-052-054-088>092-121400-
WEST TENNESSEE

CITY           SKY/WX    TMP DP  RH WIND       PRES   REMARKS
MEMPHIS INTL   PTCLDY    42  32  67 NW9       30.14R
NWS MEMPHIS      N/A     45 N/A N/A MISG        N/A
JACKSON        PTCLDY    42  33  70 N9        30.10R
DYERSBURG      CLOUDY    43  29  57 N22       30.13R
SOMERVILLE     CLOUDY    45  34  65 NW9G15    30.10R
COVINGTON      CLOUDY    45  34  65 N10       30.13R
UNION CITY     CLOUDY    41  27  56 NW17G24   30.11R
BOLIVAR        CLOUDY    45  34  65 VRB7G15   30.09R
PARIS          CLOUDY    41  32  70 N10G22    30.08R
HUNTINGDON     CLOUDY    43  30  61 NW8G15    30.08R
LEXINGTON      CLOUDY    45  30  57 NW16G26   30.06R
SELMER         CLOUDY    45  32  61 N8G18     30.07R
SAVANNAH       CLOUDY    46  34  61 N14G21    30.06R
$$

TNZ008-025-027-028-033-062-065-066-121400-
NORTH MIDDLE TENNESSEE

CITY           SKY/WX    TMP DP  RH WIND       PRES   REMARKS
NASHVILLE      CLOUDY    42  33  70 NW12G22   30.02R
PORTLAND       CLOUDY    37  34  87 NW7G14    30.00R WCI  32
CLARKSVILLE    CLOUDY    40  29  64 NW17G26   30.06R WCI  31
SMYRNA         CLOUDY    42  34  73 N15       30.02R
COOKEVILLE     CLOUDY    41  32  70 NW13G18   29.94R
GALLATIN       CLOUDY    41  32  70 NW12G21   30.03R
CROSSVILLE     CLOUDY    38  28  67 NW18G30   29.89R WCI  28
$$

TNZ061-075-076-078-094-096-097-121400-
SOUTH MIDDLE TENNESSEE

CITY           SKY/WX    TMP DP  RH WIND       PRES   REMARKS
FAYETTEVILLE   CLOUDY    45  32  61 N9G21     29.97R
TULLAHOMA      CLOUDY    41  32  70 N15       29.96R
WINCHESTER     CLOUDY    43  32  65 N15       29.96R
MCMINNVILLE    CLOUDY    43  32  65 N12G18    29.95R
COLUMBIA       CLOUDY    45  32  61 VRB6G14   30.00R
SHELBYVILLE    CLOUDY    43  34  70 NW16      29.99R
$$

TNZ017-018-042-046-047-121400-
NORTHEAST TENNESSEE

CITY           SKY/WX    TMP DP  RH WIND       PRES   REMARKS
TRI CITIES     CLOUDY    43  30  60 W16G22    29.79R
ELIZABETHTON   CLOUDY    43  30  61 W5        29.78R
$$

TNZ012-013-036-069-073-074-121400-
CENTRAL EAST TENNESSEE

CITY           SKY/WX    TMP DP  RH WIND       PRES   REMARKS
KNOXVILLE      CLOUDY    44  33  65 W12       29.87R
OAK RIDGE      CLOUDY    45  31  58 W5        29.89R
DOWNTOWN KNOXV CLOUDY    46  32  57 VRB5G13   29.87S
GATLINBURG     CLOUDY    45  30  57 W6        29.86R
MORRISTOWN     CLOUDY    43  30  61 NW9G17    29.83S
JACKSBORO      CLOUDY    43  30  61 VRB5G14   29.90R
$$

TNZ083-085-099-121400-
SOUTHEAST TENNESSEE

CITY           SKY/WX    TMP DP  RH WIND       PRES   REMARKS
CHATTANOOGA    MOCLDY    45  30  55 N15       29.93R
DAYTON         CLOUDY    45  34  65 NW9G15    29.91R
$$

SKY/WX REPORTED AS FAIR MEANS FEW OR NO CLOUDS BELOW
12 THOUSAND FEET.




USA.gov is the U.S. government's official web portal to all federal, state and local government web resources and services.